User: anonymous
Location: Holmes Observatory
(37.1039°N, 122.0513°W)
Time: 06:40:48
(UTC-07:00)
Language:

Cosmos 921 Rocket - Orbit

View from above orbital plane
View from above orbital plane
View from above satellite
View from above satellite

Ground track
Ground track

The orbit data is extracted from the following two-line orbital elements,

1 10096U 77055B   14243.50276353  .00000295  00000-0  34039-4 0  5080
2 10096 075.8371 011.8981 0043774 286.0343 141.6226 14.87850794 10419
Epoch (UTC): 31 August 2014 12:03:58
Eccentricity: 0.0043774
inclination: 75.8371°
perigee height: 574 km
apogee height: 635 km
right ascension of ascending node: 11.8981°
argument of perigee: 286.0343°
revolutions per day: 14.87850794
mean anomaly at epoch: 141.6226°
orbit number at epoch: 1041

The dashed part of the orbit path shows where the satellite is in the earth's shadow,  

DLR